Location: Moscow Pond
(43.6842°N, 73.2366°W)
Time: 00:41:05
(UTC+00:00)

Iridium 4 Rocket - Pass Details

Date: 08 November 2025
Orbit: 579 x 888 km, 86.9° (Epoch: 04 December)

Event Time Altitude Azimuth Distance (km) Brightness Sun altitude
Rises 09:24:44 0° 5° (N) 2,932 6.6 -24.4°
Reaches altitude 10° 09:27:09 10° 14° (NNE) 1,982 5.8 -23.9°
Maximum altitude 09:31:10 37° 82° (E) 933 4.5 -23.2°
Drops below altitude 10° 09:35:00 10° 150° (SSE) 1,893 5.9 -22.5°
Sets 09:37:16 0° 159° (SSE) 2,782 6.7 -22.1°
